This is the latest recevied weather packets stored in our database for station/object W4JCW. If no packets are shown the sender has not sent any weather packets the latest 10 day(s).
| Time | Temp. | Humidity | Pressure | Rain* | Wind** | Luminosity | Snow |
|---|---|---|---|---|---|---|---|
| 1778020081 | 26.67° C | 41% | 1012.2 hPa | 0 mm | - | 65 W/m² | - |
| 1778019777 | 26.67° C | 41% | 1012.5 hPa | 0 mm | - | 151 W/m² | - |
| 1778019475 | 26.67° C | 41% | 1012.3 hPa | 0 mm | - | 218 W/m² | - |
| 1778019171 | 26.67° C | 41% | 1012.6 hPa | 0 mm | - | 257 W/m² | - |
| 1778018868 | 26.67° C | 41% | 1012.7 hPa | 0 mm | - | 249 W/m² | - |
| 1778018565 | 26.67° C | 41% | 1012.6 hPa | 0 mm | - | 98 W/m² | - |
| 1778018264 | 26.67° C | 42% | 1012.6 hPa | 0 mm | - | 248 W/m² | - |
| 1778017961 | 26.67° C | 41% | 1012.6 hPa | 0 mm | - | 284 W/m² | - |
| 1778017659 | 26.67° C | 41% | 1012.5 hPa | 0 mm | - | 132 W/m² | - |
| 1778017356 | 26.67° C | 41% | 1012.6 hPa | 0 mm | - | 294 W/m² | - |
| 1778017053 | 26.67° C | 39% | 1012.6 hPa | 0 mm | - | 233 W/m² | - |
| 1778016750 | 26.67° C | 39% | 1012.5 hPa | 0 mm | - | 328 W/m² | - |
| 1778016446 | 26.67° C | 40% | 1012.8 hPa | 0 mm | - | 371 W/m² | - |
| 1778016144 | 26.67° C | 41% | 1012.9 hPa | 0 mm | - | 160 W/m² | - |
| 1778015841 | 26.67° C | 39% | 1012.9 hPa | 0 mm | - | 377 W/m² | - |
| 1778015538 | 27.22° C | 39% | 1012.9 hPa | 0 mm | - | 344 W/m² | - |
| 1778015234 | 27.78° C | 39% | 1012.8 hPa | 0 mm | - | 154 W/m² | - |
| 1778014931 | 27.78° C | 39% | 1012.9 hPa | 0 mm | - | 498 W/m² | - |
| 1778014629 | 27.78° C | 38% | 1012.7 hPa | 0 mm | - | 414 W/m² | - |
| 1778014327 | 27.78° C | 37% | 1012.9 hPa | 0 mm | - | 233 W/m² | - |
| 1778014023 | 27.78° C | 37% | 1013.2 hPa | 0 mm | - | 543 W/m² | - |
| 1778013721 | 27.78° C | 37% | 1013.1 hPa | 0 mm | - | 647 W/m² | - |
| 1778013418 | 27.78° C | 38% | 1012.9 hPa | 0 mm | - | 635 W/m² | - |
| 1778013114 | 27.78° C | 38% | 1013.2 hPa | 0 mm | - | 665 W/m² | - |
| 1778012810 | 26.67° C | 39% | 1013.1 hPa | 0 mm | - | 723 W/m² | - |
* Rain latest hour (hover to see other rain measurements)
** Current wind speed in m/s (hover to see current wind gust speed)